Wind_Speed
89 87 85 82 79 77 75 74 72 71 71 71 71 72 73 74 75 75 75 74 74 74 74 71 69 66 64 62 60 59 57 55 54 52 51 50 49 48 47 46 45 44 44 43 42 41 40 39 39 38 38 37 37 36 36 35 34 33 33 32 32 31 31 30 30 30 30 29 29 28 27 26 25 23 22 20 19 18 16 16 16 17 18 20 23 27
85 83 80 78 75 73 72 71 70 69 69 69 70 71 72 73 74 74 74 74 74 74 72 70 67 65 63 61 59 58 56 54 53 51 50 49 48 47 46 45 44 44 43 42 41 40 40 39 38 38 37 37 36 36 35 35 34 33 32 32 31 31 30 30 29 29 29 28 28 27 27 26 25 24 22 21 19 18 17 17 17 18 20 22 24 27
80 78 76 73 71 69 68 68 68 68 68 68 69 70 71 73 74 74 74 74 74 73 71 68 66 63 62 60 58 57 55 54 52 51 49 48 47 46 45 45 44 43 42 42 41 40 39 38 38 37 37 36 36 36 35 34 33 33 32 31 31 30 29 29 29 28 28 28 28 27 26 26 25 24 23 22 20 19 18 18 18 19 21 23 25 28
76 73 71 70 68 67 66 66 66 67 67 68 69 70 71 72 73 74 74 74 73 71 69 66 64 62 61 59 58 56 55 53 52 50 49 48 47 46 45 44 44 43 42 41 40 40 39 38 37 37 36 36 36 35 35 34 33 32 32 31 31 30 29 29 28 28 27 27 27 27 26 26 25 24 23 23 21 20 19 19 19 20 21 23 26 28
72 69 68 66 65 64 65 65 65 66 67 67 68 70 71 72 73 74 74 73 72 70 67 65 63 62 60 58 57 56 54 53 51 50 49 48 47 46 45 44 44 43 42 41 40 39 38 38 37 37 36 36 35 35 35 34 33 32 32 31 30 30 29 29 28 27 27 27 27 26 26 26 25 25 24 23 23 22 21 20 20 20 21 23 26 28
68 66 65 63 63 63 64 64 65 65 66 68 69 70 71 72 73 74 73 73 71 68 66 64 62 61 59 58 56 55 54 52 51 50 49 48 47 46 45 44 44 43 42 41 40 39 38 38 37 36 36 35 35 35 34 34 33 33 32 31 31 30 30 29 29 28 27 27 26 26 26 26 26 25 25 24 24 23 23 22 22 22 22 24 25 28
65 64 62 61 62 62 63 64 64 65 66 68 69 70 71 73 73 74 73 72 69 66 64 63 61 60 58 57 56 54 53 52 51 50 49 48 47 46 45 45 44 43 42 41 40 40 39 38 37 36 36 36 35 35 35 34 34 33 33 32 31 31 30 30 29 29 28 27 27 26 26 26 26 25 25 25 25 25 24 24 24 24 24 25 26 27
62 61 60 60 61 62 63 63 64 65 66 68 69 70 72 73 74 73 72 70 67 65 63 62 61 60 58 57 55 54 53 52 51 50 49 48 47 46 45 45 44 43 43 42 41 40 39 38 38 37 36 36 36 35 35 35 34 34 33 33 32 31 31 30 30 30 29 28 28 27 26 26 26 26 26 26 26 26 26 25 25 25 26 26 27 28
58 58 59 59 60 61 62 64 65 66 67 68 69 71 72 73 74 73 72 69 66 64 63 62 61 59 58 57 55 54 53 52 51 50 49 48 47 46 46 45 45 44 43 42 41 41 40 39 38 38 37 37 36 36 36 35 35 34 34 33 33 32 32 31 31 30 30 30 29 28 28 27 27 26 26 26 26 26 27 27 27 27 27 28 28 29
57 57 58 60 61 61 62 64 65 66 67 68 69 71 72 73 74 73 71 68 65 63 62 61 60 59 58 57 55 54 53 52 51 50 49 48 48 47 46 46 45 44 44 43 42 41 41 40 39 38 38 37 37 37 36 36 36 35 35 34 34 33 32 32 31 31 31 31 30 30 29 29 28 27 27 27 27 27 28 28 28 28 29 29 30 30
56 57 58 60 61 62 63 64 66 67 67 68 70 71 72 73 73 72 69 66 64 63 62 61 60 59 58 57 56 55 54 53 52 51 50 49 48 47 47 46 45 45 44 44 43 42 41 41 40 39 39 38 38 38 37 37 37 36 36 35 35 34 33 33 32 32 32 32 31 31 31 30 30 29 29 28 28 28 29 29 29 30 30 31 31 32
56 58 59 61 62 63 64 65 66 67 68 69 70 72 73 73 72 70 67 65 64 63 62 61 60 59 58 57 56 55 54 53 52 51 50 50 49 48 47 47 46 46 45 44 44 43 42 42 41 41 40 40 39 39 39 38 38 38 37 36 36 35 35 34 34 33 33 33 32 32 32 32 31 31 31 30 30 30 30 30 31 31 32 32 33 33
57 59 60 61 62 63 65 66 67 68 68 69 71 72 73 72 71 68 66 64 63 62 62 61 61 60 59 57 56 56 55 54 53 52 51 50 50 49 48 48 47 47 46 45 45 44 43 43 42 42 41 41 40 40 40 40 39 39 38 38 37 37 36 36 35 35 34 34 34 34 33 33 33 33 32 32 32 32 32 32 32 32 33 34 34 35
59 60 61 62 63 64 65 66 67 68 69 70 71 71 71 71 69 67 65 64 63 62 62 61 61 60 59 58 57 56 55 55 54 53 52 51 51 50 49 48 48 47 47 46 46 45 44 44 43 43 42 42 42 41 41 41 41 40 40 40 39 38 38 37 37 36 36 36 35 35 35 35 35 34 34 34 34 34 34 34 34 34 34 35 36 36
59 60 61 62 64 65 66 67 67 68 69 70 71 71 70 69 67 66 64 64 63 63 62 61 61 60 60 59 58 57 57 56 55 54 53 52 51 51 50 49 49 48 48 47 47 46 45 45 44 44 43 43 43 43 42 42 42 42 41 41 41 40 40 39 39 38 38 37 37 37 37 36 36 36 36 36 36 36 36 36 36 36 36 37 37 38
60 61 62 63 65 66 66 67 67 68 69 70 70 70 69 67 66 65 64 64 63 63 62 62 61 61 60 59 59 58 58 57 57 56 55 54 53 52 51 50 50 49 48 48 47 47 46 46 45 45 45 44 44 44 44 43 43 43 43 42 42 42 41 41 40 40 40 39 39 39 39 38 38 38 38 38 38 38 38 38 38 38 38 38 39 40
60 61 62 64 65 66 66 67 67 68 69 70 69 68 67 66 65 65 64 64 63 63 63 62 61 61 61 60 60 59 59 59 58 58 56 55 54 53 52 51 50 50 49 49 48 48 47 47 46 46 46 46 45 45 45 45 45 44 44 44 44 43 43 43 42 42 41 41 41 41 40 40 40 40 40 40 40 40 40 40 40 40 40 40 41 41
61 62 63 65 66 66 66 67 68 69 69 69 68 67 65 65 65 65 64 64 64 64 63 63 62 61 61 61 61 60 60 60 60 59 58 57 56 54 53 52 51 51 50 49 49 48 48 48 47 47 47 47 47 46 46 46 46 46 45 45 45 45 44 44 44 44 43 43 43 43 42 42 42 42 42 42 42 42 42 42 42 42 42 42 43 43
61 63 64 65 66 66 67 67 68 69 69 68 66 65 64 64 65 65 65 64 64 64 64 64 63 62 62 62 62 61 61 61 61 61 60 59 57 55 54 53 52 51 51 50 49 49 48 48 48 48 48 48 48 48 48 47 47 47 47 47 46 46 46 46 46 45 45 45 45 45 45 45 44 44 44 44 44 44 44 44 44 44 44 44 45 45
62 64 65 65 66 67 67 68 68 68 67 66 65 64 64 64 65 65 65 65 65 65 65 64 64 63 63 63 63 62 62 62 62 62 62 60 59 57 55 53 53 52 51 51 50 49 49 49 49 49 49 49 49 49 49 49 48 48 48 48 48 48 47 47 47 47 47 47 47 47 47 47 46 46 46 46 46 46 46 46 46 46 46 46 47 47
63 64 65 65 66 67 68 68 68 67 66 64 63 63 64 64 65 65 65 65 65 65 65 65 65 64 64 64 64 63 63 63 64 64 63 62 60 58 55 54 53 53 52 51 51 50 50 50 49 49 49 49 49 50 50 50 50 50 49 49 49 49 49 49 49 49 49 49 49 49 49 48 48 48 48 48 48 48 48 48 48 48 48 48 49 49
64 65 65 66 66 67 68 68 68 66 64 63 63 63 64 65 65 65 65 66 66 66 66 66 66 65 64 64 64 64 64 64 65 64 64 63 61 59 56 55 53 53 52 52 51 51 50 50 50 50 50 50 50 50 51 51 51 51 51 50 50 50 50 50 50 50 50 50 50 50 50 50 50 50 50 50 50 50 50 50 50 50 50 51 51 51
64 65 65 66 67 68 68 67 66 65 63 62 62 63 64 65 65 65 65 66 66 67 67 67 66 65 65 65 65 65 65 65 65 65 64 63 62 59 57 55 54 53 53 52 52 51 51 51 51 50 51 51 51 51 51 52 52 52 52 52 51 51 51 51 51 51 52 52 52 52 52 52 52 52 52 52 52 52 52 52 52 52 53 53 53 53
64 65 66 67 67 68 67 66 65 63 63 62 63 64 64 65 65 65 66 66 67 67 67 67 67 67 66 66 66 66 66 66 66 65 64 63 62 59 57 55 54 53 53 52 52 52 52 52 51 51 51 51 52 52 52 52 52 53 52 52 52 52 52 53 53 53 53 53 53 53 53 53 53 53 53 54 54 54 54 54 54 55 55 55 55 55
65 66 67 67 67 67 66 64 63 63 62 63 64 64 65 65 65 66 66 67 67 68 68 68 68 68 67 67 67 68 67 67 66 65 64 63 62 59 57 55 54 54 53 52 52 52 52 52 52 52 52 52 53 53 53 53 53 53 53 53 53 53 54 54 54 54 54 55 55 55 55 55 55 55 55 55 55 56 56 56 56 57 57 57 57 58
66 66 67 67 67 65 64 63 63 63 63 63 64 65 65 65 66 66 67 68 68 69 69 69 69 69 68 68 68 69 68 67 66 65 64 63 61 59 57 55 54 54 53 53 52 52 53 53 53 53 53 54 54 54 54 54 54 54 54 54 54 54 55 55 55 56 56 56 56 56 56 56 56 56 57 57 57 57 58 58 58 59 59 59 59 59
66 67 67 66 65 64 63 63 63 63 63 64 65 65 65 66 66 67 68 69 69 69 70 70 70 69 69 69 70 69 69 68 66 64 63 61 60 59 57 55 54 53 53 53 53 53 53 54 54 54 55 55 55 55 55 55 55 55 55 55 55 56 56 56 57 57 57 57 58 58 58 58 58 58 58 59 59 59 59 60 60 60 61 61 61 61
66 66 65 64 64 63 63 63 63 63 64 65 65 66 66 66 67 68 69 69 69 70 70 70 70 70 70 70 70 70 69 68 66 64 61 60 59 57 56 55 54 53 53 53 53 53 54 55 55 55 56 56 56 56 56 56 56 56 56 57 57 57 57 58 58 58 58 59 59 59 59 59 60 60 60 60 61 61 61 61 62 62 62 62 62 62
65 65 64 63 62 62 63 63 63 64 65 65 66 66 66 67 67 69 69 70 70 70 71 71 70 70 71 71 71 70 69 67 65 62 60 59 58 56 55 54 53 53 53 54 54 54 54 55 56 56 57 57 57 57 57 58 58 58 58 58 58 58 59 59 59 59 60 60 60 60 61 61 61 61 62 62 62 62 63 63 63 63 63 63 63 63
64 63 63 62 62 63 63 64 64 65 65 66 66 67 67 67 68 69 70 70 71 71 71 71 71 71 71 71 71 70 69 66 63 61 59 58 57 56 54 54 53 53 53 54 55 55 56 56 56 56 57 58 58 58 58 59 59 59 60 60 60 60 60 61 61 61 61 61 61 62 62 62 63 63 63 63 64 64 64 64 64 64 64 64 64 64
63 62 62 63 63 63 64 64 65 65 66 66 66 67 68 68 69 70 71 71 71 71 71 71 71 71 71 71 71 70 69 66 62 60 58 57 56 55 54 54 54 53 53 54 55 56 57 57 57 57 57 58 59 59 59 60 60 60 61 61 62 62 62 62 62 62 62 63 63 63 63 63 64 64 64 64 65 65 65 65 65 65 65 65 65 66
62 62 63 63 64 64 64 65 65 66 66 67 67 68 68 69 70 71 71 71 71 71 71 71 71 71 71 71 70 69 67 64 61 59 57 56 55 55 54 54 54 54 54 54 55 56 57 58 58 58 59 59 59 60 60 61 61 61 62 62 63 63 63 64 64 64 64 64 64 64 64 64 64 65 65 65 65 65 66 66 66 66 66 66 67 67
62 63 63 64 64 65 65 65 66 66 66 67 68 68 69 70 71 71 72 72 71 71 71 71 71 71 71 70 69 67 65 63 60 58 56 56 55 55 54 54 55 55 55 55 56 57 58 59 60 60 60 60 60 61 61 62 62 62 63 63 64 64 64 65 65 65 65 65 65 65 65 65 65 65 65 65 66 66 66 66 67 67 67 67 68 68
63 64 64 65 65 65 65 66 66 67 67 68 68 69 70 71 72 72 72 72 71 70 70 70 71 71 70 70 68 66 64 61 59 58 56 56 56 56 55 55 55 56 56 57 57 58 59 60 60 61 61 62 62 62 62 63 63 63 63 64 64 65 65 65 65 66 66 66 66 66 66 66 66 66 66 66 66 66 67 67 67 68 68 68 69 69
64 65 65 65 65 66 66 67 67 68 68 69 70 70 71 72 72 72 72 71 71 70 70 70 70 70 69 68 67 65 62 60 59 58 57 56 56 56 56 57 57 57 58 58 59 59 60 61 61 62 63 63 63 63 63 63 64 64 64 64 64 65 65 65 65 66 66 66 67 67 67 67 67 67 67 67 67 67 68 68 68 69 69 69 69 69
65 65 65 66 66 66 67 67 68 69 69 70 71 72 72 73 73 73 72 71 71 70 70 70 70 69 68 66 65 63 61 60 59 58 58 57 57 58 58 58 58 58 59 60 60 61 61 62 62 63 63 64 64 64 64 64 64 64 65 65 65 65 65 65 65 66 66 66 67 67 67 68 68 68 68 68 68 68 68 69 69 69 69 69 69 68
65 65 66 66 67 67 68 68 69 70 70 71 72 73 73 74 73 73 72 71 71 70 70 70 69 68 67 65 63 61 60 59 59 59 58 58 59 59 59 59 59 60 60 61 61 62 62 63 63 63 64 64 64 65 65 65 65 65 65 65 65 65 65 65 65 66 66 67 67 68 68 68 69 69 69 69 69 69 69 69 69 69 68 68 68 67
65 66 66 67 67 68 68 69 70 71 72 73 74 74 74 74 73 73 72 71 71 71 71 70 69 68 66 64 62 61 60 59 59 59 59 60 60 60 60 61 61 61 61 61 61 62 62 63 63 64 64 64 64 65 65 65 65 65 65 65 65 65 65 66 66 66 67 67 68 68 69 69 70 70 70 70 70 70 70 69 69 68 67 67 66 65
66 66 67 67 68 68 69 70 71 72 73 74 75 75 75 74 73 73 72 72 71 71 71 70 69 67 65 63 61 60 60 60 60 60 60 61 61 61 61 61 61 61 61 61 62 62 62 63 63 64 64 64 65 65 65 65 65 66 66 66 66 66 66 67 67 67 68 68 69 69 69 70 70 70 70 70 70 70 70 69 68 67 66 65 64 62
66 67 67 68 68 69 70 71 72 73 74 75 75 75 74 74 73 73 72 72 72 71 70 69 67 66 64 62 61 60 60 60 60 61 61 61 61 61 61 62 62 62 62 62 62 62 62 63 63 64 64 64 65 65 66 66 66 66 67 67 68 68 68 68 68 68 69 69 69 70 70 70 70 70 70 70 70 70 69 69 67 66 64 63 61 60
67 67 68 69 69 70 71 72 73 74 75 75 75 75 74 74 73 73 73 72 72 71 70 68 66 64 63 62 61 61 61 61 61 61 61 62 62 62 62 62 62 62 62 62 62 62 63 63 64 64 64 65 65 66 67 67 67 68 68 69 69 70 69 69 69 69 69 69 69 70 70 70 70 70 70 70 69 69 68 67 66 64 62 60 58 57
67 68 69 70 71 71 72 73 74 75 75 75 75 74 74 73 73 73 73 73 72 71 69 67 65 64 63 62 61 61 61 62 62 62 62 62 62 62 62 62 62 62 62 63 63 63 64 64 64 65 66 66 67 67 68 68 69 69 69 70 70 71 71 70 70 69 69 69 69 69 69 70 70 70 69 69 68 67 66 65 63 62 60 58 56 55
68 69 70 71 72 73 73 74 75 75 75 74 74 74 73 73 73 73 73 72 71 70 68 66 64 63 63 63 62 62 62 62 62 62 62 62 62 62 62 62 63 63 63 64 64 65 65 65 66 66 67 67 68 69 69 70 70 70 70 71 71 71 71 71 70 69 69 69 69 69 69 69 69 69 68 68 67 65 64 62 61 59 58 56 55 54
70 70 71 72 73 74 74 75 75 75 74 74 74 73 73 73 73 72 72 71 70 68 66 65 64 63 63 63 63 63 63 63 63 63 63 63 63 63 63 63 63 64 64 65 66 66 67 67 68 68 68 69 69 70 70 71 71 71 71 71 71 71 71 71 70 70 69 69 69 69 69 68 68 68 67 66 64 63 61 60 58 57 56 55 54 54
71 72 73 73 74 74 75 75 75 74 74 73 73 73 73 73 72 72 71 70 68 67 65 64 64 64 64 64 64 64 64 63 63 63 63 63 63 63 64 64 65 65 66 66 67 67 68 69 69 70 70 70 70 71 71 71 71 72 71 71 71 70 70 70 69 69 69 69 69 68 68 67 67 66 65 63 62 60 59 58 57 56 55 54 54 53
72 73 74 74 75 75 75 74 74 73 73 73 73 73 73 73 72 71 70 68 67 66 65 64 64 64 64 64 64 64 64 64 64 64 64 64 64 64 65 65 66 66 67 68 68 69 69 70 70 71 71 71 71 71 71 71 72 72 72 71 71 70 70 69 69 69 69 68 68 67 66 65 64 63 62 61 60 58 57 56 56 55 54 54 53 53
73 74 75 75 75 75 74 74 73 73 73 73 73 73 73 72 71 70 69 67 66 65 64 64 64 64 65 65 65 65 65 65 65 65 65 65 65 66 66 66 67 67 68 69 69 70 70 71 71 71 71 72 72 72 72 71 71 72 71 71 70 70 70 69 68 68 68 67 67 66 65 63 62 61 60 59 58 57 56 55 55 54 54 53 53 53
75 75 75 75 75 74 74 73 73 73 73 73 73 73 72 71 70 69 67 66 65 65 65 65 65 65 66 66 66 65 66 66 66 66 67 67 67 67 68 68 68 69 69 70 70 71 71 71 71 71 72 72 72 72 72 72 72 71 71 70 70 70 69 69 68 67 66 66 65 64 62 61 60 59 58 58 57 57 56 55 54 53 53 52 52 52
75 75 75 75 74 74 74 73 73 74 74 74 73 72 71 70 68 67 66 66 65 65 65 66 66 66 66 66 66 66 67 67 67 68 68 68 69 69 70 70 70 70 71 71 71 71 72 72 72 71 71 71 72 72 72 72 72 71 70 70 70 69 69 68 67 66 65 64 62 61 59 58 57 57 57 57 57 57 56 55 54 53 52 51 51 51
75 75 74 74 74 74 74 74 74 74 74 74 73 72 70 69 67 66 65 65 65 65 66 66 67 67 67 67 67 68 68 68 69 69 69 70 70 71 71 71 72 72 72 72 72 72 72 73 72 72 71 71 71 71 72 72 71 71 70 69 68 68 67 66 65 64 62 61 60 58 57 56 55 55 55 56 56 57 56 55 54 52 51 50 50 50
74 74 74 74 74 74 74 74 74 74 74 73 72 70 69 68 66 66 65 65 66 66 66 67 67 68 68 68 68 69 69 70 70 70 71 71 71 72 72 72 73 73 73 73 73 73 73 74 74 73 72 71 70 70 71 71 71 70 70 69 67 66 66 65 63 61 60 59 57 56 55 55 54 54 54 55 56 56 56 55 54 52 50 50 49 49
Wind_Direction
299 299 299 299 299 299 299 299 300 300 300 301 301 301 302 302 303 304 306 307 309 310 311 312 312 312 312 312 311 311 310 310 309 309 308 308 308 309 309 309 310 310 310 311 311 312 312 312 312 312 312 312 312 312 312 312 312 313 313 313 313 313 313 313 313 313 314 314 314 314 314 314 314 313 312 311 308 304 297 287 276 264 250 238 229 224
298 298 298 298 298 298 298 299 299 299 300 300 301 301 301 302 303 304 306 308 309 310 311 311 311 312 312 311 311 311 310 310 309 308 308 308 308 308 308 309 309 309 310 310 311 311 311 312 312 312 312 312 312 312 312 312 312 312 312 312 312 312 313 313 313 313 313 313 313 313 313 312 312 311 309 308 305 301 295 286 275 266 255 245 237 230
297 297 297 297 297 297 298 298 298 299 299 300 300 301 301 302 303 304 306 308 310 311 311 311 311 311 312 312 311 311 310 309 309 308 307 307 307 307 308 308 308 309 309 309 310 310 311 311 311 311 311 311 311 311 311 311 312 312 312 312 312 312 313 313 313 313 313 313 313 313 312 311 310 309 307 305 302 298 293 286 277 267 259 252 245 239
296 296 296 296 296 297 297 298 298 299 299 299 300 300 301 301 303 304 306 308 310 311 311 311 311 312 312 312 311 311 310 309 308 308 307 307 307 307 307 307 308 308 308 309 309 310 310 310 310 310 310 310 310 310 310 310 311 311 311 312 312 312 312 313 313 313 313 313 312 312 311 310 309 308 306 303 300 296 292 286 279 271 263 256 251 246
295 295 295 296 296 296 297 297 298 298 299 299 299 300 301 301 303 304 307 309 310 310 311 311 311 312 312 312 311 310 310 309 308 307 307 306 306 306 306 307 307 307 308 308 308 309 309 309 309 309 309 309 309 309 309 309 310 310 311 311 311 312 312 312 312 312 312 312 312 311 310 309 308 306 304 302 299 296 291 286 280 274 267 261 255 251
294 294 295 295 295 296 296 297 297 298 298 298 299 300 301 301 303 305 307 309 310 310 310 311 311 312 312 312 311 310 309 308 307 307 306 306 306 306 306 306 306 306 307 307 307 307 308 308 308 308 308 308 308 308 308 308 309 309 310 310 311 311 311 312 312 312 312 311 311 310 309 308 307 305 303 301 298 295 291 287 282 277 271 265 260 256
294 294 294 294 295 295 296 297 297 297 298 298 299 300 301 302 303 305 307 309 310 310 310 311 311 312 312 312 311 310 309 308 307 306 305 305 305 305 305 305 305 305 305 306 306 306 306 306 306 306 306 306 306 306 306 307 307 308 308 309 309 310 310 310 310 310 310 310 309 308 308 307 305 304 302 300 298 295 292 288 284 279 274 269 264 260
293 293 293 294 295 295 296 296 296 297 297 298 299 300 301 302 304 306 308 309 309 309 310 310 311 311 312 312 311 310 309 308 306 305 305 304 304 304 304 304 304 304 304 304 304 304 304 304 304 304 304 304 304 304 305 305 305 306 306 307 307 308 308 308 308 308 308 308 307 307 306 305 304 302 301 299 297 295 292 289 285 281 277 273 268 264
292 292 293 294 294 295 296 296 296 296 297 298 299 300 301 302 304 306 307 308 309 309 310 311 311 311 311 312 311 310 309 308 306 305 304 303 303 303 303 302 303 302 303 303 302 302 302 302 302 302 302 302 302 302 303 303 303 303 304 304 305 305 305 305 305 306 306 305 305 304 304 303 302 300 299 298 296 294 291 289 286 283 280 276 272 268
291 292 293 294 294 294 295 295 295 296 297 298 299 300 301 303 304 306 307 308 308 309 310 310 311 311 311 311 311 310 309 308 306 305 303 302 302 302 301 301 301 301 301 301 301 301 301 301 300 301 300 300 300 300 300 301 301 301 301 302 302 302 302 302 302 302 302 302 302 302 301 301 300 299 297 296 294 293 291 289 286 284 281 278 274 271
291 292 293 293 294 294 294 294 294 295 297 298 299 300 301 303 305 306 307 307 308 308 309 310 310 311 311 311 311 311 310 308 306 305 303 302 301 301 300 300 300 300 300 299 299 299 299 299 299 299 299 299 299 299 299 299 299 299 299 299 299 299 299 299 299 299 299 299 299 299 298 298 298 297 296 294 293 291 290 288 286 284 282 279 277 274
291 292 292 293 293 293 293 293 294 295 297 298 299 300 302 303 304 305 306 306 307 308 309 309 310 310 310 311 311 311 310 309 307 305 303 302 301 300 299 299 299 298 298 298 298 298 298 298 298 298 298 298 298 298 297 298 297 297 297 297 297 297 297 297 296 296 296 296 296 295 295 295 295 294 294 293 291 290 288 287 285 283 282 280 278 276
291 291 291 292 292 292 292 293 294 295 296 298 299 300 302 303 304 304 305 306 307 308 308 309 309 309 310 310 311 311 311 309 308 306 304 302 300 299 299 298 298 298 298 297 297 297 297 297 297 297 297 297 297 297 297 297 296 296 296 296 296 295 295 295 294 294 294 293 293 293 293 292 292 292 291 291 290 289 287 286 284 283 281 280 278 276
290 290 291 290 291 291 291 292 293 295 296 298 299 301 302 303 303 303 304 305 306 307 308 309 309 309 309 310 310 311 311 310 309 307 304 302 300 299 298 298 297 297 297 297 297 297 297 297 297 296 296 296 296 296 296 296 295 295 295 295 294 294 294 293 293 292 292 291 291 291 290 290 290 289 289 289 288 287 287 285 284 282 281 279 278 276
289 289 290 290 290 290 291 292 294 295 296 298 300 301 301 302 302 302 303 304 305 306 307 308 308 308 309 309 310 310 310 310 309 308 306 303 301 299 298 297 297 297 297 296 296 296 296 296 296 296 296 296 295 295 295 295 294 294 294 294 293 293 293 292 292 291 291 290 290 289 289 288 288 288 287 287 286 286 285 284 283 282 281 279 278 276
288 288 288 289 289 290 291 292 294 295 297 299 300 301 301 301 301 301 303 304 305 306 307 307 308 308 308 309 309 310 310 310 310 308 307 304 301 299 297 296 296 296 296 296 296 296 296 296 295 295 295 295 294 294 294 294 293 293 293 293 292 292 292 291 291 290 290 289 289 288 288 287 287 286 286 286 285 285 284 284 283 282 281 280 278 277
287 287 288 288 288 290 291 293 294 296 297 299 299 300 299 299 300 301 302 303 304 305 306 307 308 308 308 308 309 310 310 310 310 309 307 305 303 300 298 296 295 295 295 295 295 296 296 295 295 295 294 294 294 293 293 293 292 292 292 292 292 291 291 291 290 290 289 288 288 287 287 286 286 285 285 284 284 284 283 283 282 282 281 280 279 278
287 287 287 287 288 290 291 293 295 296 297 298 299 298 298 298 299 300 301 303 304 305 306 307 307 308 308 309 309 309 310 310 310 309 308 306 303 301 298 296 294 294 294 294 295 295 295 295 295 294 294 294 293 293 292 292 292 292 291 291 291 291 290 290 290 289 289 288 287 287 286 286 285 284 284 284 283 283 283 282 282 281 281 280 279 278
286 286 287 287 289 290 292 293 295 296 297 298 298 297 297 297 298 300 301 302 304 305 306 307 307 307 308 308 309 309 310 310 309 309 308 306 304 302 299 296 294 293 293 293 294 294 294 294 294 294 294 294 293 293 292 292 291 291 291 291 290 290 290 290 289 289 288 288 287 286 286 285 285 284 284 283 283 283 282 282 282 281 281 280 279 278
285 286 287 288 290 291 292 294 295 296 297 297 296 296 296 297 298 299 301 302 303 305 306 306 307 307 308 308 309 309 309 309 309 308 307 306 304 302 299 297 294 292 292 292 293 293 294 294 294 294 294 294 293 293 292 292 291 291 291 290 290 290 290 289 289 288 288 287 287 286 286 285 285 284 284 283 283 283 282 282 282 281 281 280 280 279
285 286 287 289 290 292 293 294 295 296 296 295 295 295 295 296 298 299 301 302 303 305 305 306 307 307 308 308 308 309 309 309 309 308 307 306 304 302 299 297 294 292 291 291 291 292 293 293 293 293 293 293 293 293 292 292 292 291 291 290 290 290 289 289 289 288 288 287 287 286 286 285 285 284 284 283 283 283 282 282 282 282 281 281 280 279
285 286 288 289 291 292 293 294 295 295 294 294 294 294 295 296 298 299 301 302 303 304 305 306 306 307 307 308 308 308 308 308 308 308 307 305 304 302 299 297 294 292 291 290 291 291 292 292 293 293 293 293 293 293 292 292 292 291 291 291 290 290 290 289 289 288 288 287 286 286 285 285 285 284 284 284 283 283 283 283 282 282 281 281 281 280
285 287 288 290 291 292 293 294 294 293 293 293 293 294 295 296 298 299 301 302 303 304 305 305 306 306 307 307 307 308 308 308 308 307 306 305 303 301 299 297 295 292 291 290 290 291 291 292 292 292 292 292 292 292 292 292 292 291 291 291 291 290 290 289 289 288 287 287 286 286 285 285 285 285 284 284 284 284 283 283 283 282 282 281 281 280
286 287 289 290 291 292 293 293 293 292 292 293 293 294 295 296 298 299 300 302 303 304 304 305 306 306 306 307 307 307 308 308 307 307 306 305 303 301 299 297 295 293 291 290 290 290 291 291 291 292 292 292 292 292 292 292 291 291 291 291 291 290 290 289 289 288 287 287 286 286 286 285 285 285 285 285 284 284 284 284 283 283 283 282 281 281
287 288 289 290 291 292 292 292 291 291 292 292 293 294 295 296 298 299 300 301 302 303 304 305 305 306 306 307 307 307 308 307 307 307 306 304 303 301 299 297 295 294 292 291 291 290 291 291 291 291 291 291 291 291 291 291 291 291 291 291 291 290 290 289 289 288 288 287 287 286 286 286 285 285 285 285 285 285 284 284 284 284 283 283 282 281
287 288 290 290 291 291 291 291 291 291 291 292 293 294 295 297 298 299 300 301 302 304 304 305 305 306 306 307 307 307 307 307 307 306 305 304 302 301 299 297 296 294 293 292 291 291 291 291 291 291 291 291 291 291 291 291 291 291 291 291 291 290 290 289 289 288 288 287 287 287 286 286 286 286 286 285 285 285 285 285 284 284 284 283 282 282
288 289 290 290 290 290 290 290 290 290 291 292 292 294 295 297 298 300 301 302 303 304 304 305 305 306 306 307 307 307 307 307 307 306 305 303 302 300 299 298 296 295 293 292 292 291 291 291 291 291 291 291 291 291 291 291 291 291 291 291 291 290 290 289 289 288 288 288 288 287 287 287 287 286 286 286 286 286 285 285 285 284 284 283 283 282
288 289 289 289 289 288 289 289 289 290 291 291 293 294 296 297 299 300 301 302 303 303 304 304 305 306 306 307 307 307 307 307 306 305 304 303 301 300 299 298 296 295 294 293 292 292 291 291 291 291 292 292 292 292 292 292 292 292 291 291 291 290 290 289 289 288 288 288 288 288 288 287 287 287 287 287 286 286 286 286 285 285 284 284 283 283
287 288 288 287 287 287 288 288 289 290 290 291 293 294 296 298 299 300 301 302 303 303 304 304 305 305 306 306 307 307 307 306 306 305 304 303 301 300 299 298 296 295 294 293 292 292 291 291 291 291 292 292 292 292 292 292 292 292 292 291 291 290 290 289 289 289 289 288 288 288 288 288 288 288 288 287 287 287 287 286 286 286 285 285 284 283
287 287 286 286 286 286 287 288 288 289 290 292 293 295 296 298 299 300 301 302 302 303 303 304 305 305 306 306 306 306 306 306 305 304 304 302 301 300 299 298 296 295 294 294 293 292 291 291 291 291 292 292 292 292 292 293 292 292 292 292 291 291 290 290 290 289 289 289 289 289 289 289 289 288 288 288 288 288 288 287 287 287 286 286 285 284
286 285 285 285 286 286 287 287 288 289 291 292 294 295 297 298 299 300 301 301 302 303 303 304 304 305 305 306 306 306 306 305 304 304 303 302 301 300 299 298 296 295 294 294 293 292 292 292 291 291 292 292 292 292 293 293 293 293 292 292 292 292 291 291 290 290 290 290 290 289 289 289 289 289 289 289 289 289 288 288 288 287 287 286 286 285
284 284 284 285 285 286 286 287 288 290 291 293 295 296 297 298 299 300 300 301 302 302 303 303 304 304 305 305 305 305 305 304 304 303 302 301 300 299 298 297 296 295 294 294 293 292 292 292 292 292 292 292 292 292 292 292 292 292 292 292 292 292 292 291 291 291 291 291 290 290 290 290 290 290 290 290 290 289 289 289 288 288 288 287 286 286
283 283 284 284 285 286 287 288 289 291 292 294 295 296 297 298 299 299 300 301 301 302 302 303 303 304 304 305 305 304 304 303 303 302 301 300 299 298 298 297 296 295 294 294 293 292 292 292 292 293 293 293 292 292 292 292 292 292 292 292 292 292 292 292 292 292 292 292 291 291 291 291 291 290 290 290 290 290 290 289 289 289 288 287 287 286
283 283 284 284 285 286 287 288 290 291 293 294 295 296 297 297 298 299 300 300 301 301 302 302 303 304 304 304 304 303 303 302 301 301 300 300 299 298 297 297 296 295 295 294 293 293 293 293 293 293 293 293 293 293 293 292 292 292 292 292 292 292 292 292 292 292 292 292 292 292 292 292 292 291 291 291 291 290 290 290 289 289 288 288 287 287
283 284 284 285 286 287 288 290 291 292 293 294 295 296 297 297 298 299 299 300 300 301 302 302 303 303 303 303 303 302 302 301 300 300 300 299 298 298 297 296 296 295 295 294 294 294 294 293 293 293 293 293 293 293 293 293 293 293 292 292 292 292 293 293 293 293 293 293 293 293 293 293 292 292 292 292 291 291 290 290 290 289 289 288 288 287
283 284 285 286 287 288 289 291 292 293 294 295 295 296 297 297 298 299 299 300 300 301 302 302 302 303 303 302 302 301 301 300 300 299 299 298 298 297 297 296 296 295 295 295 295 295 294 294 294 294 294 294 294 293 293 293 293 293 293 293 293 293 293 293 293 293 294 294 294 294 294 294 293 293 293 292 292 291 291 290 290 289 289 288 288 287
283 284 285 286 288 289 290 291 293 293 294 295 296 296 297 298 298 299 300 300 301 301 302 302 302 302 302 301 301 300 300 299 299 299 298 298 297 297 297 296 296 296 296 295 295 295 295 295 295 294 294 294 294 294 294 294 294 294 294 294 294 294 294 294 294 294 294 294 294 294 294 294 294 294 293 293 293 292 291 291 290 290 289 288 288 287
283 284 286 287 288 290 291 292 293 294 295 295 296 297 297 298 299 299 300 300 301 302 302 302 302 302 301 301 300 299 299 299 299 298 298 298 297 297 297 296 296 296 296 296 296 296 295 295 295 295 295 295 295 295 295 295 295 295 295 295 295 295 295 295 295 295 295 295 295 295 295 295 294 294 294 294 293 292 292 291 290 290 289 288 288 287
284 285 287 288 289 290 291 292 293 294 295 295 296 297 298 298 299 300 300 301 301 302 302 302 302 301 300 300 299 299 298 298 298 298 298 297 297 297 297 297 297 297 297 296 296 296 296 296 296 296 296 296 296 296 296 296 296 296 296 296 295 295 295 295 295 295 295 295 295 295 295 295 295 295 294 294 293 293 292 292 291 290 289 288 288 287
285 286 288 289 290 291 292 292 293 294 295 295 296 297 298 298 299 300 300 301 301 301 301 301 301 300 299 299 298 298 298 298 298 298 298 298 297 297 298 297 297 297 297 297 297 297 297 296 296 296 297 297 297 297 297 297 297 296 296 296 296 296 296 296 296 296 296 296 296 296 296 296 295 295 295 294 294 293 292 292 291 290 289 289 288 287
286 287 288 289 290 291 291 292 293 294 295 295 296 297 298 298 299 300 300 301 301 301 301 300 300 299 298 298 298 298 298 298 298 298 298 298 298 298 298 298 298 298 298 298 297 297 297 297 297 297 297 297 297 297 297 297 297 297 297 297 297 296 297 296 296 296 297 297 297 296 296 296 296 295 295 294 294 293 292 292 291 290 289 289 288 287
287 287 288 289 290 291 291 292 293 294 295 296 296 297 298 298 299 300 300 300 301 300 300 300 299 298 298 298 297 297 298 298 298 298 298 298 298 298 298 298 298 298 298 298 298 298 298 297 297 297 297 297 297 297 297 297 297 297 297 297 297 297 297 297 297 297 297 297 297 297 297 296 296 296 295 294 294 293 292 292 291 290 289 288 288 287
287 288 288 289 290 291 292 292 293 294 295 296 296 297 297 298 299 299 300 300 300 300 299 299 298 298 298 297 297 298 298 298 298 298 298 299 299 299 299 299 299 298 298 298 298 298 298 298 298 297 297 298 298 298 297 297 297 297 297 297 297 297 297 298 298 298 298 298 297 297 297 297 296 295 295 294 293 293 292 291 290 290 289 289 288 287
287 288 289 289 290 291 292 293 294 294 295 296 296 297 297 298 299 299 299 299 299 299 298 298 298 297 297 297 297 298 298 298 298 298 299 299 299 299 299 299 299 298 298 298 298 298 298 298 298 298 298 298 298 298 298 297 298 298 297 297 297 298 298 298 298 298 298 298 298 297 297 296 296 295 295 294 293 292 292 291 290 289 289 289 288 288
287 288 289 290 291 292 292 293 294 294 295 296 296 297 297 298 298 299 299 299 298 298 298 297 297 297 297 297 297 298 298 298 298 298 299 299 299 299 299 299 298 298 298 298 298 298 298 298 298 298 298 298 298 298 298 298 298 298 298 298 298 298 298 298 299 299 299 298 298 297 297 296 296 295 294 294 293 292 291 291 290 290 289 289 289 288
288 289 290 290 291 292 293 293 294 295 295 296 296 297 297 298 298 298 298 298 298 297 297 297 297 297 297 297 298 298 298 298 298 299 299 298 298 298 298 298 298 298 298 298 298 298 298 298 298 298 298 298 298 298 298 298 298 298 298 298 298 299 299 299 299 299 299 298 298 297 297 296 295 295 294 293 292 292 291 290 290 290 290 290 289 289
289 289 290 291 292 292 293 294 294 295 295 296 296 297 297 298 298 298 298 297 297 297 297 296 296 297 297 297 298 298 298 299 299 299 299 299 298 298 298 298 298 298 298 298 298 298 298 298 298 298 298 298 299 298 298 298 298 298 298 299 299 299 299 299 299 299 299 298 298 297 296 296 295 294 294 293 292 291 291 290 290 290 290 290 290 289
289 290 291 291 292 293 293 294 294 295 295 296 296 297 297 297 298 297 297 297 296 296 296 296 296 297 297 297 298 298 299 299 299 299 299 299 299 299 298 298 298 298 298 298 298 298 298 298 298 298 299 299 299 299 299 299 299 299 299 299 299 299 299 299 299 299 298 298 297 296 296 295 295 294 294 293 292 291 291 291 290 290 290 290 290 289
290 291 291 292 292 293 293 294 294 295 295 296 296 297 297 297 297 297 296 296 296 296 296 296 297 297 297 298 298 298 299 299 299 299 299 299 299 299 299 299 299 299 299 299 299 299 299 298 298 298 299 299 299 299 299 299 299 299 299 299 299 299 299 299 299 298 298 297 296 296 295 295 294 294 293 293 292 292 291 291 291 291 290 290 290 289
290 291 291 292 292 293 293 294 294 295 295 296 296 296 296 296 296 296 295 295 295 295 296 296 296 297 297 298 298 299 299 299 299 299 299 299 299 299 299 299 299 299 299 299 299 299 299 299 299 299 298 299 299 299 299 299 299 299 299 299 299 299 299 299 298 298 297 297 296 295 295 294 294 294 293 293 292 292 292 291 291 291 290 290 289 289
290 291 291 292 292 293 293 294 294 295 295 295 296 296 296 295 295 295 295 295 295 295 296 296 297 297 298 298 298 299 299 299 299 299 299 299 299 299 300 300 300 300 300 300 300 300 300 300 300 299 299 299 299 299 299 299 299 299 299 299 299 299 299 298 298 297 297 296 295 295 295 294 294 293 293 292 292 292 292 291 291 291 290 290 289 288
Height
10553 10551 10549 10547 10546 10544 10542 10541 10540 10538 10536 10534 10532 10530 10528 10526 10524 10522 10521 10519 10517 10515 10512 10511 10509 10507 10504 10502 10500 10498 10496 10494 10492 10490 10488 10486 10485 10483 10481 10480 10478 10477 10476 10474 10472 10471 10470 10468 10467 10465 10464 10462 10461 10459 10459 10457 10456 10456 10454 10453 10452 10451 10450 10449 10447 10446 10445 10444 10444 10443 10442 10442 10441 10441 10441 10441 10441 10441 10440 10440 10440 10441 10441 10441 10442 10442
10548 10546 10544 10542 10541 10540 10537 10536 10535 10534 10532 10530 10528 10526 10524 10522 10519 10518 10516 10515 10513 10511 10509 10506 10504 10502 10501 10499 10496 10494 10492 10490 10488 10487 10485 10484 10482 10481 10479 10477 10476 10474 10473 10472 10471 10469 10467 10466 10464 10463 10461 10460 10459 10457 10456 10455 10454 10453 10452 10451 10450 10449 10448 10447 10446 10445 10444 10443 10442 10442 10441 10441 10440 10440 10439 10439 10439 10440 10440 10440 10440 10440 10441 10441 10441 10442
10543 10541 10539 10537 10537 10535 10533 10532 10531 10529 10528 10526 10524 10522 10520 10518 10516 10514 10512 10511 10509 10507 10504 10502 10501 10498 10496 10494 10492 10490 10488 10486 10485 10483 10482 10480 10479 10477 10476 10474 10473 10472 10471 10469 10468 10466 10465 10464 10462 10461 10459 10458 10456 10455 10454 10453 10452 10451 10450 10449 10448 10447 10446 10446 10444 10443 10442 10442 10441 10440 10439 10439 10439 10439 10438 10438 10438 10439 10439 10439 10439 10440 10440 10441 10441 10441
10539 10537 10534 10533 10532 10531 10529 10528 10526 10525 10524 10522 10520 10518 10516 10514 10512 10511 10509 10507 10505 10502 10500 10498 10496 10494 10492 10491 10488 10486 10484 10482 10481 10479 10478 10477 10476 10474 10472 10471 10470 10469 10467 10466 10465 10464 10462 10461 10460 10459 10457 10456 10454 10453 10452 10451 10450 10449 10448 10447 10446 10446 10444 10444 10442 10442 10441 10440 10439 10439 10438 10437 10437 10437 10437 10437 10437 10437 10437 10438 10438 10439 10439 10439 10440 10441
10533 10532 10530 10529 10527 10526 10524 10524 10522 10521 10519 10517 10516 10514 10512 10510 10508 10507 10505 10503 10501 10499 10496 10494 10492 10490 10489 10486 10484 10482 10481 10479 10477 10476 10474 10473 10472 10471 10469 10468 10467 10466 10465 10464 10462 10461 10460 10459 10457 10456 10455 10454 10452 10451 10450 10449 10448 10447 10446 10445 10444 10443 10442 10442 10441 10440 10439 10439 10437 10437 10436 10436 10436 10435 10435 10435 10435 10436 10436 10436 10437 10437 10437 10438 10439 10439
10528 10527 10526 10524 10523 10522 10521 10519 10518 10516 10515 10513 10511 10510 10508 10506 10504 10502 10501 10499 10497 10495 10492 10491 10488 10486 10484 10482 10481 10479 10477 10475 10474 10472 10471 10470 10469 10467 10466 10465 10464 10463 10462 10461 10460 10459 10457 10456 10456 10454 10453 10452 10451 10449 10448 10447 10446 10445 10444 10443 10442 10441 10441 10439 10439 10438 10437 10437 10436 10436 10435 10434 10434 10434 10433 10433 10433 10434 10434 10434 10435 10436 10436 10436 10437 10437
10522 10522 10521 10520 10519 10517 10516 10515 10514 10512 10511 10509 10507 10505 10504 10502 10500 10499 10497 10496 10493 10491 10489 10487 10484 10483 10481 10479 10477 10476 10474 10472 10470 10469 10467 10466 10465 10464 10462 10461 10461 10459 10459 10458 10457 10456 10455 10454 10453 10452 10451 10449 10448 10447 10446 10444 10443 10442 10442 10441 10440 10439 10438 10437 10437 10436 10435 10435 10434 10434 10433 10432 10432 10432 10431 10431 10431 10431 10432 10432 10432 10433 10434 10434 10435 10435
10517 10517 10516 10516 10514 10513 10512 10511 10509 10508 10506 10504 10502 10501 10499 10497 10495 10494 10492 10491 10489 10487 10485 10482 10481 10479 10477 10476 10474 10472 10470 10468 10467 10466 10464 10463 10462 10461 10459 10458 10457 10456 10456 10454 10454 10453 10452 10451 10450 10449 10448 10447 10446 10444 10443 10442 10441 10440 10439 10439 10437 10437 10436 10435 10434 10434 10433 10432 10432 10431 10431 10431 10430 10430 10429 10429 10429 10429 10429 10430 10430 10431 10431 10432 10432 10432
10514 10512 10511 10511 10510 10509 10507 10506 10504 10504 10502 10501 10499 10496 10494 10492 10490 10489 10488 10487 10485 10483 10481 10479 10477 10475 10473 10472 10470 10468 10466 10465 10463 10462 10461 10459 10458 10457 10456 10455 10454 10453 10452 10451 10451 10450 10449 10448 10447 10446 10446 10444 10443 10442 10441 10440 10439 10438 10437 10436 10436 10435 10434 10433 10432 10432 10431 10430 10429 10429 10429 10429 10428 10427 10427 10427 10427 10427 10427 10427 10427 10427 10428 10429 10429 10430
10509 10508 10507 10506 10506 10505 10504 10501 10499 10499 10498 10496 10494 10492 10491 10488 10486 10484 10483 10482 10481 10479 10477 10476 10473 10471 10469 10467 10466 10465 10463 10461 10460 10459 10457 10456 10454 10454 10452 10451 10451 10449 10449 10448 10447 10446 10446 10445 10444 10443 10442 10441 10441 10439 10438 10437 10436 10436 10434 10434 10433 10432 10432 10431 10431 10429 10429 10428 10427 10427 10426 10426 10426 10426 10425 10425 10424 10424 10424 10424 10424 10425 10425 10426 10426 10426
10504 10504 10503 10502 10501 10500 10499 10497 10496 10494 10493 10492 10490 10487 10486 10484 10482 10481 10478 10477 10476 10475 10473 10472 10470 10467 10466 10464 10462 10461 10459 10457 10456 10454 10454 10452 10451 10450 10449 10448 10447 10446 10445 10444 10444 10443 10442 10441 10441 10440 10439 10438 10437 10436 10435 10434 10433 10432 10432 10431 10431 10430 10429 10429 10428 10427 10426 10426 10425 10424 10424 10423 10423 10423 10422 10422 10422 10422 10422 10422 10422 10422 10422 10422 10422 10423
10501 10499 10499 10497 10496 10496 10494 10493 10492 10491 10489 10487 10486 10483 10481 10479 10478 10477 10474 10472 10471 10470 10469 10467 10466 10464 10462 10460 10458 10456 10455 10454 10452 10451 10449 10448 10447 10446 10445 10444 10443 10442 10441 10441 10440 10439 10439 10437 10437 10436 10436 10434 10434 10432 10432 10431 10430 10429 10429 10428 10427 10427 10426 10426 10425 10424 10424 10423 10422 10422 10421 10421 10421 10420 10420 10419 10419 10419 10419 10419 10419 10419 10419 10419 10419 10419
10496 10495 10494 10493 10492 10491 10490 10489 10487 10486 10484 10483 10481 10479 10477 10475 10474 10472 10471 10469 10467 10466 10464 10462 10461 10459 10458 10457 10455 10453 10451 10449 10448 10447 10446 10444 10443 10442 10441 10440 10439 10438 10437 10437 10436 10436 10435 10434 10433 10432 10432 10431 10430 10429 10428 10427 10426 10426 10425 10424 10424 10424 10423 10422 10422 10421 10421 10420 10420 10419 10419 10418 10417 10417 10417 10416 10416 10416 10416 10416 10416 10416 10415 10415 10415 10415
10492 10491 10490 10489 10488 10487 10486 10484 10483 10482 10480 10479 10477 10475 10473 10471 10470 10468 10467 10465 10463 10462 10461 10459 10457 10455 10454 10452 10451 10449 10447 10446 10444 10442 10441 10440 10439 10438 10437 10436 10435 10434 10433 10432 10432 10431 10431 10430 10429 10428 10427 10427 10426 10425 10424 10424 10422 10422 10421 10421 10420 10420 10419 10419 10418 10417 10417 10417 10416 10416 10416 10415 10414 10414 10414 10413 10413 10412 10412 10412 10412 10412 10412 10412 10412 10411
10488 10487 10486 10484 10484 10482 10481 10481 10479 10477 10476 10474 10472 10471 10469 10467 10466 10464 10463 10461 10459 10457 10456 10454 10452 10451 10449 10449 10447 10446 10444 10442 10440 10438 10437 10436 10435 10434 10433 10432 10431 10430 10429 10428 10427 10427 10426 10426 10425 10424 10423 10422 10422 10421 10420 10419 10419 10418 10417 10417 10416 10416 10415 10415 10414 10414 10413 10413 10412 10412 10412 10411 10411 10411 10410 10410 10409 10409 10409 10409 10408 10408 10408 10408 10407 10407
10484 10483 10482 10481 10479 10478 10477 10476 10475 10473 10471 10470 10469 10467 10465 10462 10461 10460 10459 10457 10455 10454 10452 10450 10448 10446 10444 10444 10443 10442 10440 10437 10436 10434 10433 10431 10430 10429 10429 10427 10426 10426 10425 10424 10423 10422 10422 10421 10421 10420 10419 10419 10417 10417 10416 10416 10414 10414 10413 10412 10412 10412 10411 10411 10410 10410 10409 10409 10409 10408 10407 10407 10407 10406 10406 10406 10406 10405 10405 10404 10404 10404 10404 10404 10404 10403
10479 10479 10477 10476 10475 10474 10472 10472 10471 10469 10467 10466 10464 10462 10461 10459 10457 10456 10454 10453 10451 10449 10448 10446 10444 10442 10439 10438 10437 10437 10436 10433 10431 10430 10429 10427 10426 10425 10424 10423 10422 10421 10420 10419 10419 10418 10417 10417 10416 10416 10415 10414 10413 10412 10412 10411 10411 10410 10409 10409 10408 10407 10407 10406 10406 10405 10405 10404 10404 10404 10403 10403 10402 10402 10402 10401 10401 10401 10401 10400 10400 10400 10399 10399 10399 10399
10475 10474 10473 10472 10471 10469 10469 10467 10466 10465 10463 10462 10460 10458 10456 10455 10453 10452 10450 10449 10447 10446 10444 10442 10441 10439 10436 10434 10432 10431 10431 10429 10427 10425 10424 10422 10421 10421 10420 10419 10417 10416 10416 10415 10414 10414 10413 10412 10412 10411 10411 10410 10409 10408 10407 10407 10406 10406 10405 10404 10403 10402 10402 10402 10401 10401 10400 10400 10399 10399 10399 10398 10398 10397 10397 10397 10397 10396 10396 10396 10396 10395 10395 10394 10394 10394
10471 10469 10469 10467 10466 10465 10464 10463 10462 10461 10459 10457 10456 10454 10452 10450 10449 10447 10446 10444 10442 10441 10439 10437 10436 10434 10432 10430 10428 10427 10426 10424 10422 10420 10419 10417 10416 10416 10415 10414 10412 10411 10411 10410 10410 10409 10409 10408 10407 10407 10406 10405 10404 10404 10402 10402 10401 10401 10400 10399 10399 10398 10397 10397 10396 10396 10396 10395 10394 10394 10394 10393 10393 10392 10392 10392 10392 10391 10391 10391 10391 10390 10390 10389 10389 10389
10466 10465 10464 10463 10462 10461 10459 10458 10457 10456 10455 10453 10451 10450 10447 10446 10444 10443 10441 10440 10438 10437 10435 10433 10431 10430 10428 10426 10424 10422 10421 10420 10417 10416 10414 10412 10411 10411 10411 10409 10408 10407 10406 10406 10405 10404 10404 10403 10402 10402 10401 10401 10399 10399 10398 10397 10396 10396 10395 10394 10394 10393 10392 10392 10391 10391 10391 10390 10389 10389 10389 10388 10388 10387 10387 10387 10387 10386 10386 10386 10386 10385 10385 10384 10384 10384
10461 10460 10459 10459 10457 10456 10454 10453 10452 10452 10451 10449 10447 10445 10443 10442 10440 10439 10437 10436 10434 10432 10431 10429 10427 10426 10424 10422 10420 10418 10417 10416 10413 10411 10409 10407 10406 10406 10406 10404 10403 10402 10401 10401 10400 10400 10399 10399 10398 10397 10397 10396 10395 10394 10393 10392 10391 10391 10390 10389 10389 10388 10387 10387 10386 10386 10385 10384 10384 10384 10383 10382 10382 10382 10382 10381 10381 10381 10381 10380 10380 10379 10379 10379 10378 10377
10457 10456 10455 10454 10453 10452 10450 10449 10448 10447 10446 10445 10442 10441 10439 10437 10436 10434 10432 10431 10429 10427 10426 10424 10422 10421 10420 10418 10416 10414 10413 10411 10409 10406 10404 10402 10401 10401 10401 10399 10398 10397 10396 10396 10396 10395 10394 10394 10393 10392 10392 10391 10390 10389 10388 10387 10386 10386 10385 10384 10384 10383 10382 10382 10381 10381 10380 10379 10379 10378 10377 10377 10377 10376 10376 10376 10376 10375 10375 10374 10374 10374 10373 10372 10372 10372
10452 10452 10451 10450 10449 10447 10446 10445 10444 10442 10442 10441 10439 10436 10435 10433 10432 10430 10428 10426 10424 10423 10421 10420 10418 10417 10416 10414 10412 10410 10409 10407 10405 10402 10400 10397 10396 10395 10395 10394 10393 10392 10391 10391 10391 10390 10389 10389 10388 10387 10387 10386 10385 10384 10383 10382 10381 10381 10380 10379 10379 10377 10377 10376 10376 10375 10374 10373 10372 10372 10372 10371 10371 10371 10370 10370 10369 10369 10369 10368 10367 10367 10367 10366 10366 10365
10448 10447 10446 10446 10444 10443 10442 10440 10439 10438 10437 10436 10434 10432 10431 10429 10427 10426 10424 10422 10421 10419 10417 10416 10414 10412 10410 10409 10407 10405 10404 10402 10400 10397 10395 10393 10391 10390 10390 10389 10388 10387 10386 10386 10386 10385 10384 10384 10383 10382 10382 10381 10380 10379 10378 10377 10376 10376 10375 10374 10373 10372 10372 10371 10370 10369 10368 10367 10367 10366 10366 10366 10365 10364 10364 10364 10363 10362 10362 10362 10361 10361 10360 10359 10359 10359
10444 10442 10442 10441 10439 10438 10437 10436 10434 10433 10432 10431 10429 10427 10426 10425 10423 10422 10420 10418 10416 10414 10412 10411 10409 10407 10405 10404 10402 10399 10398 10397 10396 10393 10391 10388 10386 10385 10385 10384 10383 10382 10381 10381 10381 10380 10379 10378 10377 10377 10376 10376 10375 10374 10373 10372 10371 10371 10369 10369 10368 10367 10366 10365 10364 10363 10362 10362 10361 10361 10360 10359 10359 10358 10357 10357 10357 10356 10356 10355 10354 10354 10353 10352 10352 10351
10439 10438 10437 10436 10434 10433 10432 10431 10429 10428 10427 10426 10424 10422 10421 10420 10419 10417 10415 10413 10411 10409 10407 10406 10404 10402 10401 10399 10397 10394 10393 10392 10391 10389 10386 10384 10381 10380 10379 10379 10379 10377 10376 10376 10376 10375 10374 10372 10372 10372 10371 10370 10369 10369 10367 10367 10366 10365 10364 10363 10362 10362 10361 10359 10358 10357 10356 10356 10355 10354 10354 10353 10352 10352 10351 10351 10350 10349 10349 10348 10347 10347 10346 10345 10344 10344
10434 10433 10432 10431 10430 10428 10427 10426 10424 10423 10422 10421 10419 10418 10417 10416 10414 10412 10410 10408 10407 10405 10403 10401 10399 10397 10395 10394 10392 10389 10388 10386 10385 10384 10382 10379 10377 10375 10374 10374 10374 10372 10371 10371 10370 10369 10369 10367 10366 10366 10365 10364 10364 10363 10362 10361 10360 10359 10359 10357 10357 10356 10355 10354 10352 10351 10351 10349 10349 10348 10347 10347 10346 10346 10345 10344 10343 10342 10342 10341 10340 10339 10338 10337 10336 10336
10430 10429 10427 10426 10425 10424 10422 10421 10420 10419 10417 10416 10414 10414 10412 10411 10409 10407 10405 10404 10402 10401 10398 10396 10394 10392 10390 10388 10386 10384 10383 10381 10380 10379 10377 10375 10372 10371 10370 10369 10369 10367 10366 10365 10364 10364 10364 10362 10361 10360 10359 10359 10358 10357 10356 10355 10354 10354 10352 10352 10351 10350 10349 10347 10346 10346 10344 10344 10342 10342 10341 10340 10339 10339 10338 10337 10336 10336 10335 10334 10332 10332 10331 10329 10329 10327
10426 10424 10423 10422 10421 10419 10418 10417 10416 10414 10412 10411 10410 10409 10408 10407 10405 10402 10401 10399 10397 10396 10393 10391 10389 10387 10385 10383 10381 10379 10378 10376 10375 10374 10372 10370 10367 10366 10366 10365 10364 10362 10362 10360 10359 10358 10358 10357 10356 10355 10354 10353 10352 10351 10350 10349 10348 10347 10346 10346 10344 10344 10342 10341 10341 10339 10339 10337 10337 10336 10335 10334 10333 10332 10331 10330 10329 10328 10327 10326 10325 10324 10322 10322 10321 10319
10421 10419 10418 10417 10416 10414 10413 10412 10411 10409 10408 10407 10406 10404 10403 10402 10401 10398 10396 10395 10393 10391 10389 10386 10384 10382 10381 10378 10376 10374 10372 10371 10371 10369 10368 10366 10363 10361 10361 10360 10359 10358 10357 10355 10354 10352 10352 10351 10351 10350 10349 10348 10347 10346 10344 10343 10342 10341 10340 10339 10338 10337 10336 10335 10334 10333 10332 10331 10331 10329 10328 10327 10326 10325 10324 10322 10322 10321 10319 10318 10317 10316 10314 10313 10312 10311
10415 10414 10412 10412 10411 10410 10409 10407 10406 10405 10404 10402 10401 10400 10398 10397 10396 10394 10392 10390 10388 10386 10384 10382 10380 10378 10376 10374 10372 10369 10367 10366 10366 10365 10364 10361 10359 10357 10357 10355 10354 10352 10352 10351 10349 10347 10346 10345 10345 10345 10344 10342 10341 10341 10339 10338 10336 10335 10334 10332 10331 10330 10329 10328 10327 10326 10325 10324 10324 10323 10322 10321 10319 10318 10317 10316 10314 10312 10312 10311 10309 10307 10306 10305 10304 10302
10410 10409 10407 10407 10406 10405 10404 10402 10401 10401 10399 10398 10397 10396 10394 10392 10391 10389 10387 10386 10384 10382 10379 10377 10375 10373 10372 10370 10367 10365 10362 10361 10361 10360 10359 10357 10354 10352 10352 10351 10349 10347 10347 10346 10345 10342 10341 10339 10338 10339 10338 10337 10336 10335 10334 10332 10331 10329 10328 10327 10325 10324 10322 10321 10320 10319 10318 10317 10317 10316 10315 10314 10312 10311 10309 10308 10307 10305 10304 10302 10301 10300 10298 10297 10295 10294
10405 10404 10402 10402 10401 10400 10399 10398 10397 10396 10395 10394 10392 10391 10389 10387 10386 10384 10382 10381 10379 10377 10375 10373 10371 10369 10366 10365 10363 10361 10359 10357 10356 10355 10354 10352 10350 10348 10347 10346 10344 10343 10342 10341 10340 10338 10336 10334 10333 10332 10332 10331 10331 10329 10328 10327 10326 10324 10323 10321 10319 10317 10316 10315 10313 10312 10311 10309 10309 10308 10307 10306 10305 10304 10302 10301 10299 10297 10296 10294 10293 10292 10290 10289 10287 10285
10399 10398 10397 10396 10396 10394 10394 10393 10392 10391 10390 10389 10387 10386 10384 10382 10381 10379 10377 10376 10374 10373 10371 10369 10366 10364 10362 10359 10357 10356 10354 10352 10351 10350 10349 10347 10346 10344 10342 10341 10340 10338 10337 10335 10334 10333 10331 10329 10328 10327 10325 10324 10324 10323 10322 10321 10319 10318 10317 10316 10314 10312 10311 10309 10307 10306 10304 10302 10301 10300 10299 10298 10297 10296 10295 10294 10292 10290 10289 10287 10285 10284 10282 10280 10278 10277
10394 10392 10392 10391 10390 10389 10388 10387 10387 10386 10385 10384 10382 10381 10379 10377 10376 10374 10373 10371 10369 10368 10366 10364 10362 10360 10357 10355 10353 10351 10349 10347 10347 10346 10344 10342 10341 10339 10337 10336 10335 10334 10332 10330 10329 10327 10326 10324 10323 10322 10320 10318 10317 10317 10316 10315 10313 10312 10311 10309 10308 10306 10304 10303 10301 10299 10297 10296 10294 10292 10291 10290 10289 10288 10287 10286 10284 10282 10281 10279 10277 10276 10274 10272 10270 10268
10389 10387 10386 10386 10385 10384 10383 10382 10381 10380 10379 10377 10376 10375 10374 10372 10371 10369 10367 10366 10364 10362 10361 10359 10357 10355 10353 10351 10349 10346 10344 10343 10342 10341 10339 10337 10336 10334 10332 10331 10330 10329 10327 10325 10324 10322 10321 10318 10317 10316 10314 10312 10311 10309 10309 10308 10307 10306 10304 10302 10301 10300 10299 10297 10296 10294 10292 10289 10287 10286 10284 10282 10281 10280 10278 10277 10276 10274 10272 10271 10269 10267 10266 10264 10262 10261
10384 10382 10382 10381 10380 10379 10378 10377 10376 10374 10373 10371 10370 10369 10367 10366 10364 10363 10361 10360 10358 10357 10355 10352 10351 10349 10347 10346 10344 10342 10340 10338 10337 10335 10334 10332 10331 10329 10327 10326 10325 10324 10322 10320 10318 10316 10315 10313 10311 10309 10308 10307 10305 10303 10302 10301 10300 10299 10297 10296 10295 10294 10292 10291 10289 10287 10286 10283 10281 10279 10277 10276 10274 10272 10270 10269 10267 10266 10264 10262 10261 10259 10258 10256 10254 10252
10379 10378 10377 10376 10376 10374 10373 10372 10371 10369 10367 10366 10364 10362 10361 10360 10358 10357 10355 10354 10352 10351 10349 10347 10345 10343 10342 10340 10339 10337 10336 10334 10332 10330 10329 10327 10326 10324 10322 10321 10319 10318 10317 10316 10313 10311 10309 10307 10305 10303 10302 10301 10299 10297 10296 10294 10293 10292 10290 10289 10288 10287 10286 10284 10282 10281 10279 10277 10275 10272 10271 10269 10266 10264 10262 10260 10259 10257 10255 10254 10252 10251 10250 10248 10247 10246
10375 10374 10373 10372 10371 10370 10368 10367 10365 10364 10362 10361 10359 10357 10356 10354 10352 10351 10349 10348 10346 10345 10343 10341 10339 10338 10336 10335 10333 10332 10331 10329 10327 10326 10324 10322 10321 10319 10317 10316 10314 10312 10311 10310 10308 10306 10304 10302 10300 10297 10296 10294 10292 10291 10290 10289 10287 10285 10284 10282 10281 10280 10279 10277 10276 10274 10272 10270 10268 10266 10264 10262 10259 10257 10254 10252 10251 10249 10246 10245 10244 10243 10242 10241 10239 10238
10371 10370 10369 10367 10366 10365 10364 10362 10360 10359 10357 10355 10354 10352 10351 10349 10347 10345 10344 10342 10341 10339 10337 10336 10334 10332 10331 10329 10328 10327 10325 10324 10322 10321 10319 10317 10315 10314 10312 10310 10308 10307 10305 10304 10302 10300 10298 10296 10294 10292 10291 10289 10286 10284 10283 10282 10281 10279 10277 10275 10273 10272 10272 10271 10269 10267 10266 10263 10261 10259 10256 10254 10252 10249 10247 10245 10242 10241 10239 10237 10235 10234 10234 10232 10231 10230
10366 10365 10364 10362 10361 10360 10359 10357 10356 10354 10352 10350 10348 10347 10345 10343 10342 10340 10338 10336 10335 10333 10332 10330 10329 10327 10326 10324 10323 10322 10320 10318 10317 10315 10313 10312 10310 10308 10307 10305 10303 10301 10299 10297 10296 10294 10292 10291 10289 10286 10285 10283 10281 10279 10277 10276 10274 10273 10271 10269 10266 10265 10264 10264 10262 10261 10259 10256 10254 10252 10249 10247 10244 10242 10239 10237 10235 10233 10231 10229 10227 10226 10225 10225 10224 10224
10362 10361 10359 10357 10356 10355 10353 10352 10351 10349 10347 10345 10343 10341 10340 10338 10336 10334 10332 10331 10329 10327 10326 10324 10323 10321 10319 10318 10317 10316 10315 10313 10311 10309 10308 10306 10304 10302 10301 10299 10297 10296 10294 10292 10289 10288 10287 10285 10283 10281 10279 10277 10276 10273 10271 10269 10268 10267 10265 10262 10260 10258 10257 10256 10256 10254 10252 10249 10247 10245 10242 10239 10237 10234 10232 10230 10227 10225 10224 10222 10221 10219 10219 10218 10217 10217
10357 10356 10354 10352 10351 10350 10348 10347 10345 10343 10342 10340 10338 10336 10335 10333 10332 10329 10327 10326 10324 10322 10321 10319 10317 10316 10314 10312 10311 10310 10309 10307 10306 10304 10302 10301 10299 10297 10296 10294 10292 10290 10288 10286 10284 10282 10280 10279 10277 10276 10274 10272 10270 10267 10265 10263 10262 10260 10258 10257 10254 10252 10249 10247 10247 10247 10245 10242 10240 10238 10235 10232 10230 10227 10225 10222 10220 10219 10217 10215 10214 10213 10212 10212 10210 10210
10351 10350 10349 10347 10346 10344 10343 10341 10339 10338 10336 10334 10332 10331 10329 10328 10326 10324 10322 10320 10318 10317 10315 10313 10312 10310 10308 10307 10305 10304 10303 10302 10301 10299 10297 10295 10294 10292 10290 10288 10286 10284 10282 10281 10278 10276 10274 10272 10271 10269 10268 10266 10264 10262 10259 10257 10256 10253 10251 10250 10248 10246 10244 10242 10240 10239 10237 10235 10233 10231 10229 10225 10223 10220 10218 10216 10214 10212 10210 10209 10208 10207 10206 10205 10205 10204
10346 10344 10343 10342 10341 10339 10337 10336 10334 10332 10331 10329 10327 10326 10324 10322 10321 10319 10317 10315 10313 10311 10309 10308 10306 10304 10302 10301 10299 10298 10297 10296 10294 10293 10291 10290 10288 10286 10284 10282 10281 10279 10277 10275 10273 10271 10269 10266 10264 10262 10261 10260 10258 10256 10253 10251 10249 10247 10245 10243 10242 10240 10237 10236 10234 10232 10230 10227 10225 10224 10222 10219 10216 10214 10211 10209 10207 10206 10205 10204 10202 10201 10200 10200 10199 10198
10341 10339 10337 10336 10335 10333 10332 10330 10329 10327 10325 10324 10322 10320 10319 10317 10315 10313 10311 10309 10307 10306 10304 10302 10301 10299 10296 10295 10294 10292 10291 10289 10288 10287 10286 10284 10282 10281 10279 10277 10276 10273 10271 10269 10267 10265 10263 10261 10259 10256 10254 10252 10251 10249 10247 10245 10242 10240 10238 10237 10235 10233 10231 10229 10228 10226 10224 10221 10219 10216 10214 10212 10210 10207 10205 10203 10201 10200 10199 10198 10197 10195 10195 10194 10193 10192
10335 10333 10332 10331 10329 10327 10326 10325 10323 10322 10319 10317 10316 10314 10313 10311 10309 10307 10306 10304 10302 10301 10298 10297 10296 10294 10291 10289 10288 10287 10285 10283 10282 10280 10279 10277 10276 10275 10273 10271 10269 10267 10266 10263 10261 10259 10257 10255 10252 10251 10249 10246 10244 10241 10240 10239 10236 10234 10231 10230 10228 10227 10224 10223 10221 10220 10217 10215 10212 10209 10207 10205 10203 10201 10199 10197 10195 10194 10192 10192 10191 10190 10190 10189 10187 10186
10329 10327 10326 10324 10323 10322 10320 10319 10317 10316 10314 10312 10311 10309 10307 10306 10304 10302 10300 10298 10297 10295 10293 10291 10289 10287 10286 10284 10283 10281 10280 10277 10276 10274 10272 10271 10269 10268 10266 10265 10263 10261 10259 10257 10255 10252 10250 10248 10246 10244 10242 10240 10237 10235 10232 10231 10229 10227 10225 10224 10222 10220 10218 10216 10215 10213 10211 10208 10205 10204 10201 10199 10197 10195 10193 10190 10189 10187 10186 10185 10185 10185 10185 10184 10182 10180
10323 10322 10320 10319 10317 10316 10314 10313 10312 10310 10308 10306 10304 10303 10301 10301 10299 10297 10295 10293 10291 10289 10287 10286 10284 10282 10280 10278 10277 10276 10274 10272 10270 10268 10266 10265 10263 10261 10259 10257 10256 10254 10252 10250 10248 10246 10244 10241 10239 10238 10236 10234 10232 10229 10225 10224 10222 10221 10219 10217 10215 10214 10212 10209 10208 10206 10204 10202 10199 10197 10195 10194 10192 10190 10187 10185 10182 10181 10180 10179 10179 10179 10179 10178 10177 10175
10317 10316 10314 10313 10312 10310 10308 10307 10306 10304 10302 10301 10299 10297 10296 10294 10293 10292 10290 10288 10286 10284 10282 10280 10278 10276 10274 10272 10271 10270 10268 10266 10264 10262 10260 10259 10257 10255 10252 10251 10249 10247 10244 10242 10241 10239 10236 10234 10231 10230 10229 10229 10227 10224 10220 10217 10215 10214 10212 10211 10209 10208 10205 10203 10201 10200 10198 10195 10194 10192 10190 10188 10187 10185 10183 10180 10177 10175 10174 10173 10173 10173 10174 10173 10172 10170
10312 10311 10309 10307 10306 10304 10302 10301 10299 10298 10296 10295 10293 10292 10290 10289 10287 10286 10284 10282 10281 10279 10276 10275 10273 10271 10269 10267 10266 10264 10262 10260 10258 10256 10254 10252 10251 10249 10246 10244 10242 10240 10237 10235 10233 10230 10229 10226 10223 10221 10220 10221 10221 10219 10215 10211 10209 10207 10205 10204 10203 10202 10199 10197 10195 10193 10192 10189 10187 10185 10184 10182 10181 10179 10177 10175 10172 10170 10169 10167 10167 10167 10167 10167 10166 10164